Location: LDNL
(36.4545°S, 141.6685°E)
Time: 03:45:37
(UTC+11:00)

A-11 Canister half - Pass Details

Date: 11 August 2022
Orbit: 1524 x 1684 km, 47.3° (Epoch: 05 October)

Event Time Altitude Azimuth Distance (km) Brightness Sun altitude
Rises 21:40:21 0° 249° (WSW) 4,690 12.3 -45.1°
Reaches altitude 10° 21:43:37 10° 242° (WSW) 3,711 11.5 -45.8°
Enters shadow 21:49:34 36° 211° (SSW) 2,257 10.0 -46.9°
Maximum altitude 21:52:31 45° 170° (S) 2,008 - -47.5°
Drops below altitude 10° 22:01:35 10° 99° (E) 3,782 - -49.2°
Sets 22:04:55 0° 92° (E) 4,786 - -49.8°
